Simultaneous Nadir Overpasses (SNOs) Predictions

Prediction of SNOs between AQUA and NPP Satellite Orbit:

Table of predicted SNOs for the next 14.0 days since TLE Epoch: 2/15/2020
Index Date (AQUA) Time (AQUA) Lat,Lon (AQUA) SZA (AQUA ) Date (NPP) Time (NPP) Lat,Lon (NPP) SZA (NPP ) Distance(km) Time Diff (sec)
1 02/15/2020 22:38:07 -76.37, -99.28 70.19 02/15/2020 22:37:53 -76.37, -99.29 70.17 0.23 14
2 02/15/2020 23:27:14 77.22, 71.42 108.80 02/15/2020 23:28:18 77.21, 71.38 108.75 1.08 64
3 02/18/2020 14:05:19 75.92,-152.45 109.42 02/18/2020 14:04:13 75.93,-152.36 109.45 2.66 66
4 02/18/2020 14:54:33 -76.60, 17.40 71.39 02/18/2020 14:54:44 -76.60, 17.34 71.38 1.50 11
5 02/21/2020 06:21:44 76.20, -35.69 108.15 02/21/2020 06:21:03 76.21, -35.63 108.17 1.66 41
6 02/21/2020 07:10:58 -76.88, 134.25 72.66 02/21/2020 07:11:34 -76.87, 134.17 72.67 2.30 36
7 02/23/2020 22:38:09 76.48, 81.10 106.85 02/23/2020 22:37:53 76.48, 81.14 106.86 1.09 16
8 02/23/2020 23:27:23 -77.15,-108.87 73.96 02/23/2020 23:28:24 -77.14,-108.97 73.98 2.59 61
9 02/26/2020 14:05:26 -75.88, 27.43 73.44 02/26/2020 14:04:17 -75.89, 27.51 73.40 2.43 69
10 02/26/2020 14:54:32 76.80,-161.93 105.49 02/26/2020 14:54:41 76.80,-161.90 105.47 0.95 9




NCC Satellite Simultaneous Nadir Overpasses (SNOs) Prediction Service
